Lincoln, CA

7:15 AM PDT on August 19, 2017 (GMT -0700)
Lincoln Regional-Harder

Weather History for KLHM - September, 2013

Change the Weather History Date:

Wednesday, September 11, 2013

  Actual Average (KAUN) Record (KAUN)
Temperature  
Mean Temperature 72 °F -  
Max Temperature 84 °F 85 °F 105 °F (1948)
Min Temperature 60 °F 57 °F 45 °F (1985)
Cooling Degree Days 7    
Growing Degree Days 22 (Base 50)    
Moisture  
Dew Point 55 °F    
Average Humidity 60    
Maximum Humidity 82    
Minimum Humidity 33    
Precipitation  
Precipitation 0.00 in - - ()
Sea Level Pressure  
Sea Level Pressure 29.90 in    
Wind  
Wind Speed 12 mph (SSE)    
Max Wind Speed 15 mph    
Max Gust Speed 20 mph    
Visibility 10 miles    
Events      
Averages and records for this station are not official NWS values.
T = Trace of Precipitation, MM = Missing Value Source: NWS Daily Summary

Daily Weather History Graph

Daily Weather History Graph

Search for Another Location

Airport or City:

Trip Planner

Search our weather history database for the weather conditions in past years. The results will help you decide how hot, cold, wet, or windy it might be!

Date:

Astronomy

Sep. 11, 2013 Rise Set
Actual Time 6:43 AM PDT 7:19 PM PDT
Civil Twilight 6:16 AM PDT 7:46 PM PDT
Nautical Twilight 5:44 AM PDT 8:17 PM PDT
Astronomical Twilight 5:12 AM PDT 8:50 PM PDT
Moon 1:13 PM PDT (9/11) 11:24 PM PDT (9/11)
Length of Visible Light 13h 29m
Length of Day
12h 35m
Waxing Crescent, 40% of the Moon is Illuminated
Sep 11
Waxing Crescent
Sep 12
First Quarter
Sep 19
Full
Sep 26
Last Quarter
Oct 4
New

Hourly Weather History & Observations

Time (PDT) Temp. Heat Index Dew Point Humidity Pressure Visibility Wind Dir Wind Speed Gust Speed Precip Events Conditions
12:15 AM 66.2 °F - 55.4 °F 68% 29.83 in 10.0 mi SE 15.0 mph 19.6 mph N/A   Clear
12:35 AM 66.2 °F - 55.4 °F 68% 29.83 in 10.0 mi SE 13.8 mph - N/A   Clear
12:55 AM 64.4 °F - 55.4 °F 73% 29.84 in 10.0 mi SE 13.8 mph - N/A   Clear
1:15 AM 64.4 °F - 55.4 °F 73% 29.84 in 10.0 mi SE 13.8 mph - N/A   Clear
1:35 AM 64.4 °F - 55.4 °F 73% 29.84 in 10.0 mi SE 11.5 mph - N/A   Clear
1:55 AM 64.4 °F - 55.4 °F 73% 29.84 in 10.0 mi SE 13.8 mph 18.4 mph N/A   Clear
2:15 AM 62.6 °F - 55.4 °F 77% 29.84 in 10.0 mi SSE 15.0 mph - N/A   Clear
2:35 AM 62.6 °F - 55.4 °F 77% 29.85 in 10.0 mi SSE 13.8 mph 19.6 mph N/A   Clear
2:55 AM 62.6 °F - 55.4 °F 77% 29.85 in 10.0 mi SE 12.7 mph - N/A   Clear
3:15 AM 62.6 °F - 55.4 °F 77% 29.86 in 10.0 mi SSE 13.8 mph - N/A   Clear
3:35 AM 62.6 °F - 55.4 °F 77% 29.86 in 10.0 mi SE 11.5 mph - N/A   Clear
3:55 AM 62.6 °F - 55.4 °F 77% 29.87 in 10.0 mi SE 11.5 mph - N/A   Clear
4:15 AM 62.6 °F - 55.4 °F 77% 29.87 in 10.0 mi SE 12.7 mph - N/A   Clear
4:35 AM 62.6 °F - 55.4 °F 77% 29.87 in 10.0 mi SE 10.4 mph - N/A   Clear
4:55 AM 62.6 °F - 55.4 °F 77% 29.87 in 10.0 mi SE 9.2 mph - N/A   Clear
5:15 AM 62.6 °F - 55.4 °F 77% 29.88 in 10.0 mi SE 11.5 mph - N/A   Clear
5:35 AM 62.6 °F - 55.4 °F 77% 29.88 in 10.0 mi SE 11.5 mph - N/A   Clear
5:55 AM 60.8 °F - 55.4 °F 82% 29.89 in 10.0 mi SE 12.7 mph - N/A   Clear
6:15 AM 60.8 °F - 55.4 °F 82% 29.90 in 10.0 mi SE 9.2 mph - N/A   Clear
6:35 AM 60.8 °F - 55.4 °F 82% 29.90 in 10.0 mi SE 10.4 mph - N/A   Clear
6:55 AM 60.8 °F - 55.4 °F 82% 29.91 in 10.0 mi SE 11.5 mph - N/A   Clear
7:15 AM 60.8 °F - 55.4 °F 82% 29.91 in 10.0 mi SE 11.5 mph 16.1 mph N/A   Clear
7:35 AM 62.6 °F - 55.4 °F 77% 29.92 in 10.0 mi SE 11.5 mph 17.3 mph N/A   Clear
7:55 AM 62.6 °F - 55.4 °F 77% 29.93 in 10.0 mi SE 12.7 mph - N/A   Clear
8:15 AM 64.4 °F - 55.4 °F 73% 29.93 in 10.0 mi SE 12.7 mph - N/A   Clear
8:35 AM 64.4 °F - 55.4 °F 73% 29.93 in 10.0 mi SE 13.8 mph - N/A   Clear
8:55 AM 66.2 °F - 55.4 °F 68% 29.94 in 10.0 mi SE 12.7 mph - N/A   Clear
9:15 AM 68.0 °F - 53.6 °F 60% 29.95 in 10.0 mi SSE 13.8 mph 17.3 mph N/A   Clear
9:35 AM 68.0 °F - 53.6 °F 60% 29.95 in 10.0 mi SSE 12.7 mph - N/A   Clear
9:55 AM 69.8 °F - 53.6 °F 56% 29.95 in 10.0 mi SSE 12.7 mph - N/A   Clear
10:15 AM 69.8 °F - 53.6 °F 56% 29.95 in 10.0 mi SSE 11.5 mph - N/A   Clear
10:35 AM 69.8 °F - 53.6 °F 56% 29.96 in 10.0 mi SSE 11.5 mph - N/A   Clear
10:55 AM 71.6 °F - 53.6 °F 53% 29.96 in 10.0 mi SE 10.4 mph - N/A   Clear
11:15 AM 71.6 °F - 53.6 °F 53% 29.96 in 10.0 mi SE 10.4 mph - N/A   Clear
11:35 AM 73.4 °F - 53.6 °F 50% 29.95 in 10.0 mi SSE 10.4 mph - N/A   Clear
11:55 AM 73.4 °F - 53.6 °F 50% 29.95 in 10.0 mi SSE 9.2 mph - N/A   Clear
12:15 PM 77.0 °F - 53.6 °F 44% 29.95 in 10.0 mi South 9.2 mph - N/A   Clear
12:35 PM 77.0 °F - 53.6 °F 44% 29.94 in 10.0 mi South 9.2 mph - N/A   Clear
12:55 PM 77.0 °F - 53.6 °F 44% 29.93 in 10.0 mi South 10.4 mph - N/A   Clear
1:15 PM 80.6 °F 80.3 °F 53.6 °F 39% 29.93 in 10.0 mi SSW 9.2 mph - N/A   Clear
1:35 PM 82.4 °F 81.4 °F 53.6 °F 37% 29.92 in 10.0 mi South 8.1 mph - N/A   Clear
1:55 PM 82.4 °F 81.4 °F 53.6 °F 37% 29.92 in 10.0 mi South 6.9 mph - N/A   Clear
2:15 PM 82.4 °F 81.4 °F 53.6 °F 37% 29.91 in 10.0 mi SW 6.9 mph - N/A   Clear
2:35 PM 84.2 °F - 51.8 °F 33% 29.91 in 10.0 mi SW 10.4 mph - N/A   Clear
2:55 PM 82.4 °F - 51.8 °F 35% 29.90 in 10.0 mi SSW 5.8 mph - N/A   Clear
3:15 PM 82.4 °F 81.4 °F 53.6 °F 37% 29.89 in 10.0 mi SW 8.1 mph - N/A   Clear
3:35 PM 82.4 °F 81.4 °F 53.6 °F 37% 29.89 in 10.0 mi WSW 10.4 mph - N/A   Clear
3:55 PM 82.4 °F 81.4 °F 53.6 °F 37% 29.89 in 10.0 mi WSW 8.1 mph - N/A   Clear
4:15 PM 80.6 °F 80.3 °F 53.6 °F 39% 29.89 in 10.0 mi SW 8.1 mph - N/A   Clear
4:35 PM 80.6 °F 80.3 °F 53.6 °F 39% 29.88 in 10.0 mi WSW 8.1 mph - N/A   Clear
4:55 PM 80.6 °F 80.3 °F 53.6 °F 39% 29.88 in 10.0 mi South 9.2 mph - N/A   Clear
5:15 PM 80.6 °F - 51.8 °F 37% 29.88 in 10.0 mi South 8.1 mph - N/A   Clear
5:35 PM 80.6 °F - 51.8 °F 37% 29.88 in 10.0 mi South 8.1 mph - N/A   Clear
5:55 PM 80.6 °F - 51.8 °F 37% 29.88 in 10.0 mi South 9.2 mph - N/A   Clear
6:15 PM 78.8 °F - 51.8 °F 39% 29.88 in 10.0 mi South 9.2 mph - N/A   Clear
6:35 PM 78.8 °F - 53.6 °F 42% 29.88 in 10.0 mi South 6.9 mph - N/A   Clear
6:55 PM 78.8 °F - 53.6 °F 42% 29.88 in 10.0 mi South 6.9 mph - N/A   Clear
7:15 PM 73.4 °F - 55.4 °F 53% 29.88 in 10.0 mi SSW 9.2 mph - N/A   Clear
7:35 PM 71.6 °F - 55.4 °F 57% 29.88 in 10.0 mi South 10.4 mph - N/A   Clear
7:55 PM 71.6 °F - 55.4 °F 57% 29.89 in 10.0 mi South 6.9 mph - N/A   Clear
8:15 PM 69.8 °F - 55.4 °F 60% 29.90 in 10.0 mi SSE 8.1 mph - N/A   Clear
8:35 PM 69.8 °F - 55.4 °F 60% 29.91 in 10.0 mi SSE 10.4 mph - N/A   Clear
8:55 PM 69.8 °F - 55.4 °F 60% 29.91 in 10.0 mi SSE 8.1 mph - N/A   Clear
9:15 PM 68.0 °F - 55.4 °F 64% 29.91 in 10.0 mi SSE 9.2 mph - N/A   Clear
9:35 PM 68.0 °F - 55.4 °F 64% 29.91 in 10.0 mi SSE 8.1 mph - N/A   Clear
9:55 PM 68.0 °F - 55.4 °F 64% 29.91 in 10.0 mi SSE 6.9 mph - N/A   Clear
10:15 PM 68.0 °F - 55.4 °F 64% 29.91 in 10.0 mi SSE 6.9 mph - N/A   Clear
10:35 PM 68.0 °F - 55.4 °F 64% 29.91 in 10.0 mi SE 9.2 mph - N/A   Clear
10:55 PM 66.2 °F - 55.4 °F 68% 29.91 in 10.0 mi SE 10.4 mph - N/A   Clear
11:15 PM 66.2 °F - 55.4 °F 68% 29.91 in 10.0 mi SSE 6.9 mph - N/A   Clear
11:35 PM 64.4 °F - 55.4 °F 73% 29.92 in 10.0 mi SE 9.2 mph - N/A   Clear
11:55 PM 64.4 °F - 55.4 °F 73% 29.92 in 10.0 mi SE 9.2 mph - N/A   Clear